OSCAR 7

导读

OSCAR 7是美国于1974年11月15日发射的业余无线电卫星,被亲切称为卫星界的“睡美人”。它的主要任务因电池故障于1981年终止,却在2002年意外恢复工作,依靠太阳能重启星载系统。 作为服役超50年的在轨卫星,它持续为科研提供数据,证实了NASA研究人员长期假设的轨道扰动现象,虽遥测信号不稳定,但其作为业余卫星先驱的开创性地位不可动摇。

基本信息
目录编号:
7530
目录名称:
OSCAR 7
国际标识:
1974-089B
轨道中心:
EARTH
卫星名称:
OSCAR 7
卫星全名:
--
卫星状态:
在轨 (已飞行18842 天)
发射日期:
1974-11-15 UTC
国别 :
美国 (US)
星等 :
--
轨道信息
数据来源 国际轨道数据
星历时间: 2026-06-17T07:34:36+0800
8小时前
查看轨道信息
半长轴: 7827.202km
偏心率: 0.0012576
轨道倾角: 101.990°
近地点辐角 130.503°
升交点赤经 181.227°
平近点角 286.329°
近地点: 1439.221km
远地点: 1458.909km
周期: 114.860分钟
每日圈数: 12.536981
详细信息
使用方式:
暂无
2D轨道图
3D轨道图
轨道高度分析图
轨道倾角分析图
轨道综合分析图
查看轨道综合分析图